Time,TemperatureF,DewpointF,PressureIn,WindDirection,WindDirectionDegrees,WindSpeedMPH,WindSpeedGustMPH,Humidity,HourlyPrecipIn,Conditions,Clouds,dailyrainin,SoftwareType,DateUTC
2013-10-01 00:01:00,59.8,54.0,29.94,South,188,1.0,2.0,81,0.00,,---,0.00,VWS V14.01,2013-10-01 04:01:00,
2013-10-01 00:16:00,59.3,54.2,29.94,South,188,1.0,3.0,83,0.00,,---,0.00,VWS V14.01,2013-10-01 04:16:00,
2013-10-01 00:31:00,59.2,54.0,29.93,South,188,1.0,6.0,83,0.00,,---,0.00,VWS V14.01,2013-10-01 04:31:00,
2013-10-01 00:46:00,59.5,54.3,29.93,South,184,1.0,6.0,83,0.00,,---,0.00,VWS V14.01,2013-10-01 04:46:00,
2013-10-01 01:01:00,59.8,55.0,29.94,South,184,1.0,7.0,84,0.00,,---,0.00,VWS V14.01,2013-10-01 05:01:00,
2013-10-01 01:16:00,59.9,55.4,29.94,South,188,1.0,6.0,85,0.00,,---,0.00,VWS V14.01,2013-10-01 05:16:00,
2013-10-01 01:31:00,59.9,55.4,29.94,South,188,1.0,7.0,85,0.00,,---,0.00,VWS V14.01,2013-10-01 05:31:00,
2013-10-01 01:46:00,59.9,55.7,29.94,South,189,3.0,6.0,86,0.00,,---,0.00,VWS V14.01,2013-10-01 05:46:00,
2013-10-01 02:01:00,59.7,55.8,29.94,South,187,1.0,6.0,87,0.00,,---,0.00,VWS V14.01,2013-10-01 06:01:00,
2013-10-01 02:16:00,59.4,55.8,29.95,South,185,0.0,6.0,88,0.00,,---,0.00,VWS V14.01,2013-10-01 06:16:00,
2013-10-01 02:31:00,59.1,55.9,29.95,South,185,3.0,5.0,89,0.00,,---,0.00,VWS V14.01,2013-10-01 06:31:00,
2013-10-01 02:46:00,59.0,56.1,29.95,South,185,0.0,5.0,90,0.00,,---,0.00,VWS V14.01,2013-10-01 06:46:00,
2013-10-01 03:01:00,58.8,56.2,29.95,South,185,1.0,5.0,91,0.00,,---,0.00,VWS V14.01,2013-10-01 07:01:00,
2013-10-01 03:16:00,58.8,56.5,29.96,South,185,1.0,6.0,92,0.00,,---,0.00,VWS V14.01,2013-10-01 07:16:00,
2013-10-01 03:31:00,58.7,56.7,29.96,SSW,200,4.0,7.0,93,0.00,,---,0.00,VWS V14.01,2013-10-01 07:31:00,
2013-10-01 03:46:00,58.5,56.5,29.96,SSW,202,1.0,6.0,93,0.00,,---,0.00,VWS V14.01,2013-10-01 07:46:00,
2013-10-01 04:01:00,57.7,55.7,29.97,SSW,202,0.0,5.0,93,0.00,,---,0.00,VWS V14.01,2013-10-01 08:01:00,
2013-10-01 04:16:00,57.7,56.0,29.96,SSW,202,3.0,4.0,94,0.00,,---,0.00,VWS V14.01,2013-10-01 08:16:00,
2013-10-01 04:31:00,57.7,56.3,29.97,SSW,202,2.0,5.0,95,0.00,,---,0.00,VWS V14.01,2013-10-01 08:31:00,
2013-10-01 04:46:00,58.1,56.7,29.96,SSW,203,2.0,5.0,95,0.00,,---,0.00,VWS V14.01,2013-10-01 08:46:00,
2013-10-01 05:01:00,58.7,57.3,29.96,SSW,205,2.0,7.0,95,0.00,,---,0.00,VWS V14.01,2013-10-01 09:01:00,
2013-10-01 05:16:00,59.4,58.3,29.97,SSW,211,7.0,9.0,96,0.00,,---,0.00,VWS V14.01,2013-10-01 09:16:00,
2013-10-01 05:31:00,59.7,58.6,29.97,SW,221,2.0,8.0,96,0.00,,---,0.00,VWS V14.01,2013-10-01 09:31:00,
2013-10-01 05:46:00,59.7,58.6,29.97,SW,229,2.0,13.0,96,0.01,,---,0.01,VWS V14.01,2013-10-01 09:46:00,
2013-10-01 06:16:00,59.8,58.7,29.97,South,191,2.0,9.0,96,0.01,,---,0.01,VWS V14.01,2013-10-01 10:16:00,
2013-10-01 06:31:00,60.0,58.9,29.97,SW,221,4.0,9.0,96,0.01,,---,0.01,VWS V14.01,2013-10-01 10:31:00,
2013-10-01 06:46:00,60.2,59.3,29.97,SW,224,4.0,10.0,97,0.01,,---,0.01,VWS V14.01,2013-10-01 10:46:00,
2013-10-01 07:01:00,60.3,59.5,29.98,SW,233,4.0,8.0,97,0.00,,---,0.01,VWS V14.01,2013-10-01 11:01:00,
2013-10-01 07:16:00,60.5,59.7,29.98,SW,225,5.0,9.0,97,0.00,,---,0.01,VWS V14.01,2013-10-01 11:16:00,
2013-10-01 07:31:00,60.6,59.8,29.98,WSW,242,4.0,8.0,97,0.00,,---,0.01,VWS V14.01,2013-10-01 11:31:00,
2013-10-01 07:46:00,60.6,59.8,29.98,SW,233,3.0,11.0,97,0.00,,---,0.01,VWS V14.01,2013-10-01 11:46:00,
2013-10-01 08:16:00,60.6,59.8,29.99,SSW,202,4.0,9.0,97,0.00,,---,0.01,VWS V14.01,2013-10-01 12:16:00,
2013-10-01 08:31:00,60.4,59.5,29.99,SSW,192,5.0,12.0,97,0.00,,---,0.01,VWS V14.01,2013-10-01 12:31:00,
2013-10-01 08:46:00,60.4,59.5,29.99,SW,232,4.0,11.0,97,0.00,,---,0.01,VWS V14.01,2013-10-01 12:46:00,
2013-10-01 09:16:00,60.5,59.7,30.00,SSW,212,5.0,12.0,97,0.00,,---,0.01,VWS V14.01,2013-10-01 13:16:00,
2013-10-01 09:31:00,60.6,59.8,30.00,SSW,193,1.0,11.0,97,0.00,,---,0.01,VWS V14.01,2013-10-01 13:31:00,
2013-10-01 09:46:00,60.6,59.8,30.00,South,178,7.0,14.0,97,0.00,,---,0.01,VWS V14.01,2013-10-01 13:46:00,
2013-10-01 10:01:00,60.9,60.0,30.00,SW,230,5.0,14.0,97,0.00,,---,0.01,VWS V14.01,2013-10-01 14:01:00,
2013-10-01 10:16:00,61.2,60.3,30.00,SSW,203,7.0,13.0,97,0.00,,---,0.01,VWS V14.01,2013-10-01 14:16:00,
2013-10-01 10:31:00,61.3,60.2,30.01,WSW,250,7.0,12.0,96,0.00,,---,0.01,VWS V14.01,2013-10-01 14:31:00,
2013-10-01 10:46:00,61.6,60.5,30.01,SSW,198,3.0,16.0,96,0.00,,---,0.01,VWS V14.01,2013-10-01 14:46:00,
2013-10-01 11:01:00,61.9,60.5,30.01,WSW,237,5.0,11.0,95,0.00,,---,0.01,VWS V14.01,2013-10-01 15:01:00,
2013-10-01 11:16:00,62.4,60.7,30.01,WSW,246,6.0,12.0,94,0.00,,---,0.01,VWS V14.01,2013-10-01 15:16:00,
2013-10-01 11:31:00,62.5,60.8,30.01,SW,224,6.0,13.0,94,0.00,,---,0.01,VWS V14.01,2013-10-01 15:31:00,
2013-10-01 11:46:00,62.6,60.5,30.01,SW,235,4.0,15.0,93,0.00,,---,0.01,VWS V14.01,2013-10-01 15:46:00,
2013-10-01 12:01:00,63.0,61.0,30.01,SSW,209,2.0,10.0,93,0.00,,---,0.01,VWS V14.01,2013-10-01 16:01:00,
2013-10-01 12:16:00,63.4,61.3,30.00,SSW,207,6.0,13.0,93,0.00,,---,0.01,VWS V14.01,2013-10-01 16:16:00,
2013-10-01 12:31:00,63.9,61.2,30.00,SSW,204,3.0,13.0,91,0.00,,---,0.01,VWS V14.01,2013-10-01 16:31:00,
2013-10-01 12:46:00,64.5,61.5,29.99,SSE,166,4.0,11.0,90,0.00,,---,0.01,VWS V14.01,2013-10-01 16:46:00,
2013-10-01 13:01:00,65.0,61.7,29.99,South,188,8.0,10.0,89,0.00,,---,0.01,VWS V14.01,2013-10-01 17:01:00,
2013-10-01 13:16:00,65.4,62.1,29.99,South,178,1.0,10.0,89,0.00,,---,0.01,VWS V14.01,2013-10-01 17:16:00,
2013-10-01 13:31:00,65.8,62.2,29.99,SW,224,3.0,10.0,88,0.00,,---,0.01,VWS V14.01,2013-10-01 17:31:00,
2013-10-01 13:46:00,66.4,62.4,29.99,SSW,192,3.0,9.0,87,0.00,,---,0.01,VWS V14.01,2013-10-01 17:46:00,
2013-10-01 14:01:00,67.0,62.7,29.98,SSW,198,4.0,13.0,86,0.00,,---,0.01,VWS V14.01,2013-10-01 18:01:00,
2013-10-01 14:16:00,67.9,63.2,29.97,SSW,202,3.0,9.0,85,0.00,,---,0.01,VWS V14.01,2013-10-01 18:16:00,
2013-10-01 14:31:00,69.6,63.9,29.97,South,183,4.0,11.0,82,0.00,,---,0.01,VWS V14.01,2013-10-01 18:31:00,
2013-10-01 14:46:00,69.9,63.8,29.97,South,190,3.0,11.0,81,0.01,,---,0.02,VWS V14.01,2013-10-01 18:46:00,
2013-10-01 15:01:00,70.9,64.1,29.96,South,169,4.0,11.0,79,0.01,,---,0.02,VWS V14.01,2013-10-01 19:01:00,
2013-10-01 15:16:00,72.0,64.4,29.95,South,171,2.0,10.0,77,0.01,,---,0.02,VWS V14.01,2013-10-01 19:16:00,
2013-10-01 15:31:00,72.4,64.8,29.94,SE,132,6.0,13.0,77,0.01,,---,0.02,VWS V14.01,2013-10-01 19:31:00,
2013-10-01 15:46:00,73.3,64.9,29.94,South,184,3.0,11.0,75,0.01,,---,0.02,VWS V14.01,2013-10-01 19:46:00,
2013-10-01 16:01:00,73.3,64.5,29.94,SSW,194,6.0,10.0,74,0.00,,---,0.02,VWS V14.01,2013-10-01 20:01:00,
2013-10-01 16:16:00,73.6,64.8,29.93,South,182,9.0,11.0,74,0.00,,---,0.02,VWS V14.01,2013-10-01 20:16:00,
2013-10-01 16:31:00,74.6,65.0,29.93,SE,130,1.0,10.0,72,0.00,,---,0.02,VWS V14.01,2013-10-01 20:31:00,
2013-10-01 16:46:00,74.8,64.8,29.92,South,175,6.0,13.0,71,0.00,,---,0.02,VWS V14.01,2013-10-01 20:46:00,
2013-10-01 17:01:00,75.5,63.8,29.92,SW,218,12.0,13.0,67,0.00,,---,0.02,VWS V14.01,2013-10-01 21:01:00,
2013-10-01 17:16:00,75.2,64.3,29.92,South,176,4.0,14.0,69,0.00,,---,0.02,VWS V14.01,2013-10-01 21:16:00,
2013-10-01 17:31:00,74.8,64.0,29.92,SW,227,3.0,15.0,69,0.00,,---,0.02,VWS V14.01,2013-10-01 21:31:00,
2013-10-01 17:46:00,74.8,64.0,29.92,SSW,209,4.0,16.0,69,0.00,,---,0.02,VWS V14.01,2013-10-01 21:46:00,
2013-10-01 18:01:00,74.9,63.6,29.92,West,265,3.0,13.0,68,0.00,,---,0.02,VWS V14.01,2013-10-01 22:01:00,
2013-10-01 18:16:00,74.9,64.1,29.92,SSW,196,4.0,11.0,69,0.00,,---,0.02,VWS V14.01,2013-10-01 22:16:00,
2013-10-01 18:31:00,74.6,63.8,29.92,WSW,239,5.0,10.0,69,0.00,,---,0.02,VWS V14.01,2013-10-01 22:31:00,
2013-10-01 18:46:00,74.3,63.9,29.92,WSW,254,2.0,8.0,70,0.00,,---,0.02,VWS V14.01,2013-10-01 22:46:00,
2013-10-01 19:01:00,73.6,64.4,29.93,South,178,3.0,6.0,73,0.00,,---,0.02,VWS V14.01,2013-10-01 23:01:00,
2013-10-01 19:16:00,72.4,64.0,29.93,SSE,163,0.0,6.0,75,0.00,,---,0.02,VWS V14.01,2013-10-01 23:16:00,
2013-10-01 19:31:00,71.3,63.7,29.93,SSW,194,4.0,7.0,77,0.00,,---,0.02,VWS V14.01,2013-10-01 23:31:00,
2013-10-01 19:46:00,70.4,63.2,29.93,South,179,2.0,8.0,78,0.00,,---,0.02,VWS V14.01,2013-10-01 23:46:00,
2013-10-01 20:01:00,69.7,63.3,29.94,SSW,209,0.0,6.0,80,0.00,,---,0.02,VWS V14.01,2013-10-02 00:01:00,
2013-10-01 20:16:00,69.1,63.0,29.94,SSW,209,2.0,5.0,81,0.00,,---,0.02,VWS V14.01,2013-10-02 00:16:00,
2013-10-01 20:31:00,68.4,62.7,29.95,SSW,209,0.0,4.0,82,0.00,,---,0.02,VWS V14.01,2013-10-02 00:31:00,
2013-10-01 20:46:00,67.7,62.7,29.95,SSW,209,2.0,3.0,84,0.00,,---,0.02,VWS V14.01,2013-10-02 00:46:00,
2013-10-01 21:01:00,67.3,62.3,29.96,SSW,209,0.0,4.0,84,0.00,,---,0.02,VWS V14.01,2013-10-02 01:01:00,
2013-10-01 21:16:00,66.7,62.4,29.96,SSW,209,0.0,3.0,86,0.00,,---,0.02,VWS V14.01,2013-10-02 01:16:00,
2013-10-01 21:31:00,66.4,62.1,29.96,SSW,209,1.0,3.0,86,0.00,,---,0.02,VWS V14.01,2013-10-02 01:31:00,
2013-10-01 21:46:00,66.1,62.1,29.96,SSW,209,3.0,4.0,87,0.00,,---,0.02,VWS V14.01,2013-10-02 01:46:00,
2013-10-01 22:01:00,66.1,62.1,29.96,SSW,209,2.0,5.0,87,0.00,,---,0.02,VWS V14.01,2013-10-02 02:01:00,
2013-10-01 22:16:00,66.0,62.0,29.96,SSW,193,3.0,6.0,87,0.00,,---,0.02,VWS V14.01,2013-10-02 02:16:00,
2013-10-01 22:31:00,65.8,62.2,29.96,South,185,3.0,7.0,88,0.00,,---,0.02,VWS V14.01,2013-10-02 02:31:00,
2013-10-01 22:46:00,65.8,62.2,29.96,SSW,202,3.0,6.0,88,0.00,,---,0.02,VWS V14.01,2013-10-02 02:46:00,
2013-10-01 23:01:00,65.7,62.0,29.96,SSW,202,3.0,6.0,88,0.00,,---,0.02,VWS V14.01,2013-10-02 03:01:00,
2013-10-01 23:16:00,65.8,61.8,29.95,SSW,202,2.0,6.0,87,0.00,,---,0.02,VWS V14.01,2013-10-02 03:16:00,
2013-10-01 23:31:00,65.7,62.0,29.96,SSW,211,1.0,7.0,88,0.00,,---,0.02,VWS V14.01,2013-10-02 03:31:00,
2013-10-01 23:46:00,65.6,62.0,29.96,SW,219,3.0,7.0,88,0.00,,---,0.02,VWS V14.01,2013-10-02 03:46:00,